Regional Weather Roundup
Issued by NWS

Home | Current Version | Previous Version | Text Only | Print | Product List | Glossary Off
Versions: 1 2 3 4 5 6 7 8 9 10 11 12 13 14 15 16 17 18 19 20 21 22 23 24 25 26 27 28 29 30 31 32 33 34 35 36 37 38 39 40 41 42 43 44 45 46 47 48 49 50

000
ASUS43 KLMK 202302
RWRKY
KENTUCKY REGIONAL WEATHER ROUNDUP
NATIONAL WEATHER SERVICE LOUISVILLE KY
700 PM EDT SUN APR 20 2014

NOTE "FAIR" INDICATES FEW OR NO CLOUDS BELOW 12,000 FEET
WITH NO SIGNIFICANT WEATHER AND/OR OBSTRUCTIONS TO VISIBILITY.

KYZ001>023-026-027-061>063-070>075-210000-
WESTERN AND SOUTH CENTRAL KENTUCKY

CITY           SKY/WX    TMP DP  RH WIND       PRES   REMARKS
PADUCAH        MOSUNNY   79  44  28 SW9       30.10S
HENDERSON      MOSUNNY   73  43  33 NE5       30.10F
OWENSBORO      SUNNY     75  33  21 NW5       30.11F
HOPKINSVILLE   PTSUNNY   75  37  25 E5        30.11S
BOWLING GREEN  MOSUNNY   75  36  24 S3        30.12F
GLASGOW        NOT AVBL
$$

KYZ024-025-028>034-038-045-046-053-210000-
NORTH CENTRAL KENTUCKY

CITY           SKY/WX    TMP DP  RH WIND       PRES   REMARKS
LOUISVILLE/SDF CLOUDY    79  39  23 CALM      30.10F
LOUISVILLE/LOU CLOUDY    80  38  22 CALM      30.11F
FORT KNOX      CLOUDY    76  37  24 CALM      30.10F
$$

KYZ035>037-039>044-047>052-055>060-089>105-210000-
NORTHEAST KENTUCKY

CITY           SKY/WX    TMP DP  RH WIND       PRES   REMARKS
LEXINGTON      PTSUNNY   75  37  25 CALM      30.13F
COVINGTON      PTSUNNY   72  40  31 CALM      30.13F
FRANKFORT      PTSUNNY   71  42  35 E7        30.12F
$$

KYZ054-064>069-076>088-106>120-210000-
SOUTHEAST KENTUCKY

CITY           SKY/WX    TMP DP  RH WIND       PRES   REMARKS
JACKSON        SUNNY     76  26  15 CALM      30.13F
LONDON         SUNNY     76  36  23 W3        30.13F
SOMERSET       NOT AVBL
MIDDLESBORO    NOT AVBL
MONTICELLO     CLEAR     77  38  24 N7        30.14S
$$




USA.gov is the U.S. government's official web portal to all federal, state and local government web resources and services.